This demonstration page uses our WeatherBlox Daily Observations layout. Learn more.

Left ArrowRight Arrow

39.01783, -85.05884

Hourly Observations for September 25, 2021

Temp ( °F °C ) Dew Point ( °F °C ) Humidity (%) Winds ( mph kmh ) Pressure ( in mb ) Visibility ( mi km ) Precip ( " mm )
12:52 am 00:52 Partly Cloudy 58 14.4 48 8.9 70 70 SSW 6 9 30.01 1016 10 16 N/A
1:52 am 01:52 Partly Cloudy 56 13.3 48 8.9 75 75 SSW 6 9 30.01 1016 10 16 N/A
2:52 am 02:52 Partly Cloudy 56 13.3 48 8.9 75 75 SSW 7 11 30.01 1016 10 16 N/A
3:52 am 03:52 Partly Cloudy 56 13.3 49 9.4 77 77 S 8 13 29.99 1016 10 16 N/A
4:52 am 04:52 Partly Cloudy 55 12.8 48 8.9 77 77 S 7 11 29.98 1015 10 16 N/A
5:52 am 05:52 Partly Cloudy 56 13.3 48 8.9 75 75 SSW 10 17 29.98 1015 10 16 N/A
6:52 am 06:52 Mostly Clear 58 14.4 48 8.9 70 70 WSW 9 15 30.02 1017 10 16 N/A
7:52 am 07:52 Cloudy 59 15 50 10 72 72 SW 6 9 30.04 1017 10 16 N/A
8:52 am 08:52 Cloudy with Light Rain 59 15 51 10.6 75 75 S 7 11 30.03 1017 10 16 0.00 0.00
9:52 am 09:52 Cloudy 59 15 52 11.1 78 78 SW 7 11 30.03 1017 10 16 0.00 0.00
10:52 am 10:52 Cloudy 60 15.6 53 11.7 78 78 WSW 7 11 30.04 1017 10 16 N/A
11:52 am 11:52 Cloudy 61 16.1 54 12.2 78 78 W 13 20 30.05 1018 10 16 N/A
12:52 pm 12:52 Partly Cloudy 64 17.8 52 11.1 65 65 WNW 15 24 30.05 1018 10 16 N/A
1:52 pm 13:52 Partly Cloudy 66 18.9 50 10 56 56 WNW 12 19 30.05 1018 10 16 N/A
2:52 pm 14:52 Partly Cloudy 69 20.6 41 5 36 36 WNW 13 20 30.03 1017 10 16 N/A
3:52 pm 15:52 Partly Cloudy 70 21.1 42 5.6 37 37 WNW 16 26 30.03 1017 10 16 N/A
4:52 pm 16:52 Partly Cloudy 70 21.1 42 5.6 37 37 W 13 20 30.02 1017 10 16 N/A
5:52 pm 17:52 Partly Cloudy 69 20.6 39 3.9 33 33 NW 12 19 30.02 1017 10 16 N/A
6:52 pm 18:52 Mostly Sunny 66 18.9 41 5 40 40 WNW 10 17 30.04 1017 10 16 N/A
7:52 pm 19:52 Clear 60 15.6 41 5 50 50 W 3 6 30.04 1017 10 16 N/A
8:52 pm 20:52 Clear 57 13.9 42 5.6 58 58 SW 3 6 30.05 1018 10 16 N/A
9:52 pm 21:52 Clear 57 13.9 43 6.1 60 60 SW 5 7 30.06 1018 10 16 N/A
10:52 pm 22:52 Clear 54 12.2 43 6.1 67 67 SW 5 7 30.07 1018 10 16 N/A
11:52 pm 23:52 Clear 54 12.2 44 6.7 69 69 N N/A 30.07 1018 10 16 N/A

Powered by AerisWeather